Home > Time Zones > World Clock > Weather > Spain > Jaén > Past weeks

Flag for Spain Weather past 2 weeks in Jaén, Spain

Now
41 °F

Passing clouds.


Feels Like: 38 °F
Forecast: 36 / 49 °F
Wind: 5 mph from Southwest

Location: Granada / Aeropuerto

Current Time: Feb 1, 2015 at 9:18:42 PM

Latest Report: Feb 1, 2015 at 9:00 PM


Visibility: N/A

Pressure: 30.09 "Hg

Humidity: 70%

Dew point: 32 °F

Location of JaénLocation

Historic Weather in Jaén — Graph

°F

Jaén temperature yesterday

Maximum temperature yesterday: 54 °F (at 7:00 AM)
Minimum temperature yesterday: 41 °F (at 11:00 PM)
Average temperature yesterday: 50 °F

Past Weeks' High & Low Weather Summary

 TemperatureHumidityPressure
High64 °F (Jan 27, 4:30 PM)100% (Jan 18, 7:30 AM)30.36 "Hg (Jan 18, 7:30 AM)
Low25 °F (Jan 24, 7:00 AM)22% (Jan 25, 3:30 PM)29.56 "Hg (Jan 31, 7:00 AM)
Average44 °F73%30.06 "Hg
* Reported Jan 17 8:00 PM — Feb 1 8:00 PM, Jaén, Weather by CustomWeather, © 2014

Note: Actual official high and low records may vary slightly from our data, if they occured in-between our weather recording intervals... More about our weather records

Advertising

Jaén weather history for previous 24 hours

 ConditionsComfort  
Time TempWeatherWind HumidityBarometerVisibility
8:00 PM
Feb 1
39 °FPassing clouds.3 mph81%30.09 "HgN/A
7:30 PM37 °FPassing clouds.2 mph87%30.07 "HgN/A
7:00 PM43 °FPassing clouds.1 mph61%30.07 "HgN/A
6:30 PM46 °FPassing clouds.No wind57%30.07 "HgN/A
6:00 PM46 °FPassing clouds.3 mph53%30.07 "HgN/A
5:30 PM46 °FPassing clouds.9 mph53%30.07 "HgN/A
5:00 PM48 °FPassing clouds.9 mph46%30.07 "HgN/A
4:30 PM48 °FPassing clouds.9 mph46%30.04 "HgN/A
4:00 PM48 °FPassing clouds.9 mph43%30.04 "HgN/A
3:30 PM48 °FPassing clouds.8 mph46%30.04 "HgN/A
3:00 PM48 °FPassing clouds.10 mph43%30.04 "HgN/A
2:30 PM48 °FPassing clouds.9 mph46%30.07 "HgN/A
2:00 PM48 °FPassing clouds.8 mph46%30.07 "HgN/A
1:30 PM46 °FPassing clouds.6 mph53%30.07 "HgN/A
1:00 PM45 °FPassing clouds.3 mph53%30.07 "HgN/A
12:30 PM45 °FPassing clouds.7 mph61%30.09 "HgN/A
12:00 PM43 °FPassing clouds.10 mph61%30.09 "HgN/A
11:30 AM43 °FPassing clouds.12 mph61%30.07 "HgN/A
11:00 AM39 °FPassing clouds.12 mph65%30.07 "HgN/A
10:30 AM39 °FPassing clouds.13 mph70%30.07 "HgN/A
10:00 AM37 °FPassing clouds.9 mph81%30.07 "HgN/A
9:30 AM37 °FScattered clouds.7 mph75%30.04 "HgN/A
9:00 AM36 °FScattered clouds.8 mph87%30.04 "HgN/A
8:30 AM36 °FScattered clouds.9 mph87%30.01 "HgN/A
8:00 AM36 °FPassing clouds.6 mph87%30.01 "HgN/A
7:30 AM37 °FPassing clouds.5 mph81%29.98 "HgN/A
7:00 AM37 °FPassing clouds.8 mph87%29.98 "HgN/A
6:30 AM36 °FPassing clouds.1 mph87%29.95 "HgN/A
6:00 AM37 °FPassing clouds.3 mph81%29.95 "HgN/A
11:00 PM
Jan 31
41 °FPassing clouds.15 mph87%29.86 "HgN/A
10:30 PM43 °FPassing clouds.15 mph81%29.86 "HgN/A
9:30 PM43 °FPassing clouds.12 mph81%29.83 "HgN/A
9:00 PM43 °FPassing clouds.12 mph81%29.80 "HgN/A
Weather by CustomWeather, © 2014

See weather overviewHow to use our weather pages